• In Spain
  • List of Countries
  • For 7 days
  • Water Temperature
  • Satellite Maps
  • Weather Map
  • Weather Widgets
  • user-avatar
    Login

    Hourly Weather Santa Cruz

    Today, 19 September, Wednesday

    Time Temperature Precipitation Wind Pressure Humidity
    00:00 +28°C° 0 mm 5 mps 718 mmHg 65%
    01:00 +28°C° 0 mm 5 mps 718 mmHg 66%
    02:00 +27°C° 0 mm 5 mps 718 mmHg 67%
    03:00 +27°C° 0 mm 5 mps 718 mmHg 68%
    04:00 +27°C° 0 mm 5 mps 718 mmHg 68%
    05:00 +27°C° 0 mm 5 mps 717 mmHg 69%
    06:00 +28°C° 0 mm 5 mps 718 mmHg 66%
    07:00 +28°C° 0 mm 6 mps 718 mmHg 63%
    08:00 +29°C° 0 mm 7 mps 718 mmHg 61%
    09:00 +32°C° 0 mm 7 mps 719 mmHg 55%
    10:00 +33°C° 0 mm 7 mps 719 mmHg 50%
    11:00 +35°C° 0 mm 7 mps 719 mmHg 45%
    12:00 +35°C° 0 mm 7 mps 718 mmHg 44%
    13:00 +36°C° 0 mm 7 mps 718 mmHg 42%
    14:00 +36°C° 0 mm 7 mps 717 mmHg 41%
    15:00 +36°C° 0 mm 6 mps 717 mmHg 42%
    16:00 +36°C° 0 mm 6 mps 717 mmHg 42%
    17:00 +35°C° 0 mm 6 mps 717 mmHg 43%
    18:00 +34°C° 0 mm 5 mps 718 mmHg 47%
    19:00 +33°C° 0 mm 4 mps 719 mmHg 50%
    20:00 +31°C° 0 mm 3 mps 719 mmHg 53%
    21:00 +30°C° 0 mm 3 mps 720 mmHg 55%
    22:00 +30°C° 0 mm 3 mps 720 mmHg 56%
    23:00 +29°C° 0 mm 3 mps 721 mmHg 58%

    Tomorrow, 20 September, Thursday

    Time Temperature Precipitation Wind Pressure Humidity
    00:00 +29°C° 0 mm 3 mps 720 mmHg 60%
    01:00 +29°C° 0 mm 3 mps 720 mmHg 61%
    02:00 +28°C° 0 mm 3 mps 720 mmHg 62%
    03:00 +28°C° 0 mm 2 mps 720 mmHg 64%
    04:00 +28°C° 0 mm 2 mps 720 mmHg 66%
    05:00 +27°C° 0 mm 2 mps 719 mmHg 68%
    06:00 +28°C° 0 mm 2 mps 720 mmHg 64%
    07:00 +29°C° 0 mm 2 mps 721 mmHg 61%
    08:00 +30°C° 0 mm 2 mps 721 mmHg 57%
    09:00 +31°C° 0.1 mm 2 mps 722 mmHg 55%
    10:00 +32°C° 0.1 mm 2 mps 722 mmHg 53%
    11:00 +34°C° 0.1 mm 3 mps 722 mmHg 50%
    12:00 +35°C° 0.1 mm 3 mps 721 mmHg 46%
    13:00 +36°C° 0.1 mm 3 mps 721 mmHg 41%
    14:00 +37°C° 0.1 mm 3 mps 721 mmHg 37%
    15:00 +37°C° 0 mm 2 mps 720 mmHg 38%
    16:00 +36°C° 0 mm 2 mps 720 mmHg 39%
    17:00 +34°C° 0 mm 1 mps 720 mmHg 40%
    18:00 +33°C° 0 mm 1 mps 720 mmHg 45%
    19:00 +32°C° 0 mm 1 mps 721 mmHg 50%
    20:00 +30°C° 0 mm 1 mps 721 mmHg 55%
    21:00 +29°C° 0.2 mm 1 mps 721 mmHg 61%
    22:00 +28°C° 0.2 mm 1 mps 722 mmHg 68%
    23:00 +27°C° 0.2 mm 2 mps 722 mmHg 74%

    Day after tomorrow, 21 September, Friday

    Time Temperature Precipitation Wind Pressure Humidity
    00:00 +26°C° 0.1 mm 1 mps 722 mmHg 75%
    01:00 +26°C° 0.1 mm 1 mps 721 mmHg 76%
    02:00 +25°C° 0.1 mm 1 mps 721 mmHg 77%
    03:00 +25°C° 0 mm 1 mps 721 mmHg 77%
    04:00 +25°C° 0 mm 1 mps 721 mmHg 77%
    05:00 +25°C° 0 mm 1 mps 721 mmHg 77%
    06:00 +26°C° 0.1 mm 1 mps 721 mmHg 73%
    07:00 +27°C° 0.1 mm 1 mps 722 mmHg 69%
    08:00 +28°C° 0.1 mm 1 mps 723 mmHg 65%
    09:00 +31°C° 0 mm 1 mps 723 mmHg 58%
    10:00 +33°C° 0 mm 1 mps 723 mmHg 50%
    11:00 +37°C° 0 mm 2 mps 723 mmHg 43%
    12:00 +38°C° 0 mm 3 mps 722 mmHg 39%
    13:00 +40°C° 0 mm 4 mps 721 mmHg 35%
    14:00 +41°C° 0 mm 5 mps 720 mmHg 31%
    15:00 +40°C° 0 mm 4 mps 720 mmHg 32%
    16:00 +38°C° 0 mm 4 mps 719 mmHg 32%
    17:00 +38°C° 0 mm 4 mps 719 mmHg 33%
    18:00 +36°C° 0 mm 3 mps 719 mmHg 38%
    19:00 +34°C° 0 mm 2 mps 719 mmHg 43%
    20:00 +31°C° 0 mm 1 mps 720 mmHg 48%
    21:00 +30°C° 0 mm 1 mps 720 mmHg 51%
    22:00 +29°C° 0 mm 1 mps 720 mmHg 54%
    23:00 +28°C° 0 mm 1 mps 720 mmHg 56%

    22 September, Saturday

    Time Temperature Precipitation Wind Pressure Humidity
    00:00 +28°C° 0 mm 1 mps 720 mmHg 58%
    01:00 +28°C° 0 mm 1 mps 720 mmHg 60%
    02:00 +27°C° 0 mm 1 mps 719 mmHg 61%
    03:00 +27°C° 0 mm 2 mps 719 mmHg 62%
    04:00 +27°C° 0 mm 2 mps 719 mmHg 62%
    05:00 +27°C° 0 mm 2 mps 719 mmHg 62%
    06:00 +29°C° 0 mm 3 mps 720 mmHg 57%
    07:00 +30°C° 0 mm 3 mps 721 mmHg 52%
    08:00 +32°C° 0 mm 4 mps 721 mmHg 47%
    09:00 +35°C° 0 mm 5 mps 721 mmHg 42%
    10:00 +37°C° 0 mm 5 mps 721 mmHg 36%
    11:00 +40°C° 0 mm 6 mps 721 mmHg 31%
    12:00 +41°C° 0 mm 6 mps 720 mmHg 29%
    13:00 +41°C° 0 mm 6 mps 719 mmHg 27%
    14:00 +42°C° 0 mm 6 mps 718 mmHg 26%
    15:00 +42°C° 0 mm 6 mps 718 mmHg 26%
    16:00 +41°C° 0 mm 6 mps 717 mmHg 27%
    17:00 +40°C° 0 mm 5 mps 717 mmHg 28%
    18:00 +39°C° 0 mm 5 mps 717 mmHg 32%
    19:00 +36°C° 0 mm 4 mps 718 mmHg 35%
    20:00 +34°C° 0 mm 3 mps 718 mmHg 39%
    21:00 +34°C° 0 mm 3 mps 719 mmHg 41%
    22:00 +33°C° 0 mm 3 mps 719 mmHg 42%
    23:00 +33°C° 0 mm 3 mps 719 mmHg 44%

    23 September, Sunday

    Time Temperature Precipitation Wind Pressure Humidity
    00:00 +31°C° 0 mm 3 mps 719 mmHg 46%
    01:00 +31°C° 0 mm 3 mps 719 mmHg 47%
    02:00 +30°C° 0 mm 3 mps 718 mmHg 48%
    03:00 +30°C° 0 mm 3 mps 718 mmHg 49%
    04:00 +30°C° 0 mm 4 mps 718 mmHg 50%
    05:00 +30°C° 0 mm 4 mps 718 mmHg 51%
    06:00 +32°C° 0 mm 4 mps 719 mmHg 48%
    07:00 +32°C° 0 mm 5 mps 720 mmHg 46%
    08:00 +33°C° 0 mm 6 mps 721 mmHg 43%
    09:00 +35°C° 0 mm 6 mps 720 mmHg 39%
    10:00 +38°C° 0 mm 6 mps 720 mmHg 35%
    11:00 +40°C° 0 mm 7 mps 720 mmHg 31%
    12:00 +41°C° 0 mm 7 mps 719 mmHg 29%
    13:00 +41°C° 0 mm 6 mps 718 mmHg 27%
    14:00 +42°C° 0 mm 6 mps 718 mmHg 25%
    15:00 +42°C° 0 mm 6 mps 717 mmHg 26%
    16:00 +41°C° 0 mm 6 mps 717 mmHg 27%
    17:00 +41°C° 0 mm 6 mps 717 mmHg 28%
    18:00 +39°C° 0 mm 5 mps 717 mmHg 31%
    19:00 +37°C° 0 mm 4 mps 718 mmHg 34%
    20:00 +35°C° 0 mm 4 mps 718 mmHg 37%
    21:00 +34°C° 0 mm 3 mps 719 mmHg 39%
    22:00 +33°C° 0 mm 3 mps 719 mmHg 41%
    23:00 +33°C° 0 mm 3 mps 720 mmHg 43%

    24 September, Monday

    Time Temperature Precipitation Wind Pressure Humidity
    00:00 +31°C° 0 mm 3 mps 719 mmHg 45%
    01:00 +31°C° 0 mm 3 mps 719 mmHg 46%
    02:00 +30°C° 0 mm 3 mps 719 mmHg 47%
    03:00 +30°C° 0 mm 3 mps 719 mmHg 49%
    04:00 +29°C° 0 mm 3 mps 719 mmHg 50%
    05:00 +29°C° 0 mm 3 mps 719 mmHg 52%
    06:00 +30°C° 0 mm 3 mps 720 mmHg 49%
    07:00 +32°C° 0 mm 4 mps 721 mmHg 45%
    08:00 +34°C° 0 mm 4 mps 722 mmHg 42%
    09:00 +36°C° 0 mm 5 mps 722 mmHg 37%
    10:00 +39°C° 0 mm 5 mps 721 mmHg 32%
    11:00 +41°C° 0 mm 6 mps 721 mmHg 27%
    12:00 +42°C° 0 mm 6 mps 720 mmHg 26%
    13:00 +42°C° 0 mm 5 mps 720 mmHg 24%
    14:00 +43°C° 0 mm 5 mps 719 mmHg 23%
    15:00 +42°C° 0 mm 5 mps 719 mmHg 24%
    16:00 +42°C° 0 mm 5 mps 718 mmHg 25%
    17:00 +41°C° 0 mm 4 mps 718 mmHg 26%
    18:00 +38°C° 0 mm 3 mps 719 mmHg 31%
    19:00 +36°C° 0 mm 3 mps 719 mmHg 35%
    20:00 +34°C° 0 mm 2 mps 719 mmHg 39%
    21:00 +32°C° 0 mm 2 mps 720 mmHg 43%
    22:00 +30°C° 0 mm 2 mps 720 mmHg 46%
    23:00 +29°C° 0 mm 2 mps 720 mmHg 50%
    Show more